Location: Rottenacker
(48.2350°N, 9.6886°E)
Time: 23:21:37
(UTC+02:00)

Tiangong 2 - Visible Passes

Search period start: 24 May 2018 00:00
Search period end: 03 June 2018 00:00
Orbit: 382 x 385 km, 42.8° (Epoch: 24 May)

Date Brightness Start Highest point End Pass type
(mag) Time Alt. Az. Time Alt. Az. Time Alt. Az.
24 May 2.2 23:11:00 10° WSW 23:13:17 28° SSW 23:13:17 28° SSW visible
25 May 2.1 22:11:24 10° SW 22:14:10 28° S 22:16:22 14° ESE visible
25 May 3.3 23:47:46 10° WSW 23:48:34 15° WSW 23:48:34 15° WSW visible
26 May 2.1 22:48:00 10° WSW 22:50:48 29° S 22:51:30 26° SSE visible
27 May 2.1 21:48:18 10° WSW 21:51:07 30° S 21:53:56 10° ESE visible
27 May 2.9 23:24:55 10° WSW 23:26:32 19° SW 23:26:32 19° SW visible
28 May 2.3 22:25:02 10° WSW 22:27:44 26° S 22:29:18 17° SSE visible
29 May 3.0 23:02:13 10° WSW 23:04:14 16° SSW 23:04:14 16° SSW visible
30 May 2.7 22:02:08 10° WSW 22:04:36 21° SSW 22:06:57 11° SE visible
31 May 3.5 22:40:01 10° SW 22:41:00 11° SSW 22:41:52 10° S visible
